This is the latest recevied weather packets stored in our database for station/object NQ9F. If no packets are shown the sender has not sent any weather packets the latest 10 day(s).
| Time | Temp. | Humidity | Pressure | Rain* | Wind** | Luminosity | Snow |
|---|---|---|---|---|---|---|---|
| 1777470553 | 13.89° C | 85% | 1016.6 hPa | 0 mm | - | 57 W/m² | - |
| 1777470249 | 13.89° C | 86% | 1016.4 hPa | 0 mm | - | 49 W/m² | - |
| 1777469945 | 13.89° C | 85% | 1016.3 hPa | 0 mm | - | 50 W/m² | - |
| 1777469640 | 13.89° C | 85% | 1016.5 hPa | 0 mm | - | 40 W/m² | - |
| 1777469336 | 13.89° C | 86% | 1016.4 hPa | 0 mm | - | 40 W/m² | - |
| 1777469031 | 13.89° C | 86% | 1016.2 hPa | 0 mm | - | 28 W/m² | - |
| 1777468727 | 13.89° C | 86% | 1016 hPa | 0 mm | - | 29 W/m² | - |
| 1777468423 | 13.89° C | 85% | 1015.9 hPa | 0 mm | - | 33 W/m² | - |
| 1777468119 | 13.89° C | 86% | 1015.8 hPa | 0 mm | - | 44 W/m² | - |
| 1777467816 | 13.89° C | 85% | 1016 hPa | 0 mm | - | 26 W/m² | - |
| 1777467511 | 13.89° C | 85% | 1015.9 hPa | 0 mm | - | 23 W/m² | - |
| 1777467207 | 13.89° C | 86% | 1016 hPa | 0 mm | - | 19 W/m² | - |
| 1777466904 | 13.89° C | 86% | 1015.7 hPa | 0 mm | - | 16 W/m² | - |
| 1777466602 | 13.89° C | 85% | 1016.1 hPa | 0 mm | - | 13 W/m² | - |
| 1777466298 | 13.89° C | 85% | 1016 hPa | 0 mm | - | 16 W/m² | - |
| 1777465995 | 14.44° C | 86% | 1016 hPa | 0 mm | - | 12 W/m² | - |
| 1777465690 | 14.44° C | 85% | 1015.9 hPa | 0 mm | - | 15 W/m² | - |
| 1777465386 | 14.44° C | 85% | 1015.9 hPa | 0 mm | - | 9 W/m² | - |
| 1777465085 | 14.44° C | 84% | 1015.9 hPa | 0 mm | - | 6 W/m² | - |
| 1777464781 | 14.44° C | 84% | 1015.8 hPa | 0 mm | - | 5 W/m² | - |
| 1777464477 | 14.44° C | 84% | 1015.5 hPa | 0 mm | - | 4 W/m² | - |
| 1777464173 | 14.44° C | 84% | 1015.5 hPa | 0 mm | - | 3 W/m² | - |
| 1777463872 | 14.44° C | 84% | 1015.1 hPa | 0 mm | - | 3 W/m² | - |
| 1777463568 | 14.44° C | 82% | 1015.3 hPa | 0 mm | - | 1 W/m² | - |
| 1777463263 | 14.44° C | 82% | 1015.2 hPa | 0 mm | - | 1 W/m² | - |
* Rain latest hour (hover to see other rain measurements)
** Current wind speed in m/s (hover to see current wind gust speed)